Weather History for Abbotsford, BC

Change the Weather History Date:

Friday, January 31, 2014

  Actual Average Record
Temperature  
Mean Temperature 34 °F -  
Max Temperature 41 °F 47 °F 55 °F (1998)
Min Temperature 26 °F 33 °F 26 °F (2007)
Degree Days  
Heating Degree Days 30    
Moisture  
Dew Point 20 °F    
Average Humidity 54    
Maximum Humidity 74    
Minimum Humidity 34    
Precipitation  
Precipitation 0.00 in 0.21 in - ()
Sea Level Pressure  
Sea Level Pressure 30.10 in    
Wind  
Wind Speed 6 mph ()    
Max Wind Speed 13 mph    
Max Gust Speed 20 mph    
Visibility 10.6 miles    
Events      
Averages and records for this station are not official NWS values.
T = Trace of Precipitation, MM = Missing Value Source: Averaged Metar Reports

Daily Weather History Graph

Daily Weather History Graph

Search for Another Location

Airport:

Trip Planner

Search our weather history database for the weather conditions in past years. The results will help you decide how hot, cold, wet, or windy it might be!

Date:

Astronomy

Jan. 31, 2014 Rise Set
Actual Time 7:41 AM PST 5:05 PM PST
Civil Twilight 7:07 AM PST 5:39 PM PST
Nautical Twilight 6:29 AM PST 6:17 PM PST
Astronomical Twilight 5:51 AM PST 6:54 PM PST
Moon 7:45 AM PST (1/31) 6:48 PM PST (1/31)
Length of Visible Light 10h 32m
Length of Day
9h 24m
New Moon, 1% of the Moon is Illuminated
Jan 31
New Moon
Feb 6
First Quarter
Feb 14
Full
Feb 22
Last Quarter
Mar 1
New

Hourly Weather History & Observations

Time (PST) Temp. Windchill Dew Point Humidity Pressure Visibility Wind Dir Wind Speed Gust Speed Precip Events Conditions
12:00 AM 35.6 °F 28.0 °F 21.2 °F 56% 29.98 in 10.0 mi ENE 10.4 mph - N/A   Mostly Cloudy
1:00 AM 35.6 °F 27.1 °F 19.4 °F 52% 29.99 in 10.0 mi ENE 12.7 mph 19.6 mph N/A   Mostly Cloudy
2:00 AM 35.6 °F 28.6 °F 17.6 °F 48% 30.00 in 10.0 mi ENE 9.2 mph - N/A   Mostly Cloudy
3:00 AM 35.6 °F 28.0 °F 17.6 °F 48% 30.01 in 10.0 mi ENE 10.4 mph - N/A   Mostly Cloudy
4:00 AM 34 °F - 19 °F 41% 30.02 in 10 mi NE 6.9 mph - -   Scattered Clouds
4:00 AM 33.8 °F 27.7 °F 19.4 °F 56% 30.02 in 10.0 mi NNE 6.9 mph - N/A   Mostly Cloudy
5:00 AM 35.6 °F 30.7 °F 17.6 °F 48% 30.02 in 10.0 mi NE 5.8 mph - N/A   Mostly Cloudy
6:00 AM 33.8 °F 26.4 °F 17.6 °F 52% 30.04 in 10.0 mi ENE 9.2 mph - N/A   Mostly Cloudy
7:00 AM 33.8 °F 30.8 °F 17.6 °F 52% 30.06 in 10.0 mi East 3.5 mph - N/A   Mostly Cloudy
8:00 AM 32.0 °F - 17.6 °F 55% 30.07 in 30.0 mi Calm Calm - N/A   Partly Cloudy
9:00 AM 33.8 °F - 17.6 °F 52% 30.10 in 30.0 mi Calm Calm - N/A   Partly Cloudy
10:00 AM 35 °F - 19 °F 40% 30.11 in 28 mi North 1.2 mph - -   Scattered Clouds
10:00 AM 35.6 °F - 19.4 °F 52% 30.11 in 30.0 mi Calm Calm - N/A   Partly Cloudy
11:00 AM 35.6 °F 29.9 °F 17.6 °F 48% 30.12 in 30.0 mi East 6.9 mph - N/A   Partly Cloudy
12:00 PM 37.4 °F 30.8 °F 19.4 °F 48% 30.12 in 30.0 mi East 9.2 mph - N/A   Partly Cloudy
1:00 PM 39.2 °F 33.0 °F 19.4 °F 45% 30.11 in 30.0 mi East 9.2 mph - N/A   Partly Cloudy
2:00 PM 41.0 °F 38.0 °F 19.4 °F 42% 30.12 in 30.0 mi NNE 4.6 mph - N/A   Partly Cloudy
3:00 PM 41.0 °F 37.1 °F 21.2 °F 45% 30.12 in 30.0 mi ESE 5.8 mph - N/A   Partly Cloudy
4:00 PM 40 °F - 21 °F 34% 30.14 in 28 mi ESE 5.8 mph - -   Scattered Clouds
4:00 PM 39.2 °F 35.0 °F 21.2 °F 49% 30.14 in 30.0 mi ESE 5.8 mph - N/A   Partly Cloudy
4:46 PM 35.6 °F 30.7 °F 21.2 °F 56% 30.15 in 30.0 mi ESE 5.8 mph - N/A   Partly Cloudy
5:00 PM 35.6 °F 31.7 °F 21.2 °F 56% 30.15 in 30.0 mi East 4.6 mph - N/A   Partly Cloudy
6:00 PM 33.8 °F 28.6 °F 19.4 °F 56% 30.15 in 15.0 mi East 5.8 mph - N/A   Clear
7:00 PM 30.2 °F 26.7 °F 21.2 °F 69% 30.16 in 15.0 mi North 3.5 mph - N/A   Clear
8:00 PM 30.2 °F 26.7 °F 21.2 °F 69% 30.17 in 10.0 mi North 3.5 mph - N/A   Clear
9:00 PM 28.4 °F 24.6 °F 21.2 °F 74% 30.17 in 10.0 mi NNW 3.5 mph - N/A   Clear
10:00 PM 28 °F - 20 °F 63% 30.18 in 10 mi NNE 4.6 mph - -  
10:00 PM 28.4 °F 22.2 °F 21.2 °F 74% 30.18 in 10.0 mi NNE 5.8 mph - N/A   Clear
11:00 PM 26.6 °F - 19.4 °F 74% 30.19 in 10.0 mi North 2.3 mph - N/A   Clear